Location: Ohmer (historical)
(38.0096°N, 122.0227°W)
Time: 18:48:54
(UTC+00:00)

Cosmos 1937 Rocket - Pass Details

Date: 14 February 2026
Orbit: 741 x 776 km, 74.0° (Epoch: 10 March)

Event Time Altitude Azimuth Distance (km) Brightness Sun altitude
Rises 14:20:54 0° 194° (SSW) 3,169 6.7 -8.2°
Reaches altitude 10° 14:23:14 10° 193° (SSW) 2,253 5.9 -7.7°
Maximum altitude 14:28:21 81° 107° (ESE) 764 3.6 -6.7°
Drops below altitude 10° 14:33:32 10° 20° (NNE) 2,289 6.1 -5.7°
Sets 14:35:55 0° 20° (NNE) 3,224 6.8 -5.2°
